Wind_Speed
26 25 24 24 24 25 25 26 26 25 25 24 25 24 23 22 22 22 22 23 25 26 28 29 29 30 30 32 32 33 34 36 37 38 39 40 40 42 44 44 45 43 43 44 42 40 40 41 42 40 38 39 39 39 39 39 38 39 43 44 44 45 46 44 41 36 33 32 30 27 26 27 26 23 20 18 17 17 18 18 19 19 19 19 20
24 23 23 24 25 26 26 26 25 24 23 23 24 24 23 21 21 21 21 23 25 26 27 28 28 29 29 30 31 32 32 34 36 37 38 38 38 40 43 45 46 44 43 45 44 42 42 43 43 42 40 39 37 37 38 38 39 39 42 44 46 46 47 46 43 39 34 33 32 30 29 30 29 26 24 22 20 20 19 18 19 20 20 20 21
22 23 23 24 25 26 27 25 23 23 23 22 22 22 22 21 21 21 22 23 24 25 26 26 26 27 28 28 29 30 30 31 33 34 35 35 36 38 40 43 45 45 44 45 44 43 43 44 44 43 41 39 37 37 37 38 39 40 40 42 46 48 48 47 45 41 37 35 35 34 32 32 32 30 27 26 25 23 21 20 20 21 21 22 22
22 22 23 24 25 26 26 24 23 22 21 20 19 19 19 21 21 21 21 21 21 22 22 23 24 25 26 27 28 29 29 29 30 30 31 33 33 35 36 38 41 43 44 44 44 43 43 43 44 43 43 42 40 38 38 37 37 39 40 41 44 48 50 49 46 43 40 37 37 36 35 34 34 33 31 30 29 27 25 23 22 21 21 23 24
22 22 22 23 24 25 25 23 22 21 19 17 16 17 18 20 20 21 20 19 18 18 18 20 21 22 25 27 28 28 28 28 28 27 27 30 31 32 33 35 36 38 40 42 43 43 44 44 44 44 44 43 42 40 39 38 37 38 40 42 44 48 51 50 47 44 42 40 38 37 36 36 36 35 35 34 32 31 29 26 24 22 22 23 25
22 21 22 23 24 24 23 22 21 19 16 15 16 17 18 19 20 21 20 19 18 18 18 20 21 23 26 28 29 28 26 26 26 25 24 26 28 29 30 32 34 35 37 39 40 42 43 44 44 45 44 43 42 40 38 39 39 38 40 42 44 46 50 51 48 45 43 42 40 38 37 37 37 37 37 36 35 34 32 28 26 25 25 25 25
22 21 22 23 24 23 23 21 20 18 16 15 16 17 18 19 20 20 20 20 20 21 21 21 22 23 25 27 28 28 26 24 24 24 24 24 26 28 30 31 33 34 35 37 39 41 42 44 44 45 45 44 44 42 40 40 40 39 39 41 42 45 48 49 47 45 43 42 41 39 37 37 38 38 39 38 37 36 33 29 28 28 28 28 27
21 21 21 22 23 23 22 21 19 17 16 15 16 18 18 19 20 20 21 21 21 22 22 22 22 22 23 24 26 25 23 22 23 23 23 23 24 26 30 31 32 34 35 37 39 41 43 44 45 46 46 45 45 44 43 42 42 40 38 39 42 44 46 47 46 45 43 42 41 40 38 37 38 38 39 40 39 36 32 30 31 30 29 30 30
21 21 21 22 23 22 22 20 18 17 16 15 15 17 17 18 19 21 22 22 22 21 21 22 22 22 21 21 22 20 17 17 20 22 23 24 24 24 27 29 30 32 34 36 38 41 43 45 47 47 46 44 44 45 45 45 45 43 40 39 42 45 46 47 47 45 43 42 41 39 38 38 37 38 39 39 38 35 32 33 33 31 30 32 32
21 21 21 22 22 22 21 20 19 17 16 15 15 16 17 17 18 20 23 24 22 18 19 22 24 23 21 20 19 18 17 18 16 19 25 29 28 25 24 26 29 32 34 34 35 38 39 41 43 44 45 44 43 43 44 45 47 46 43 42 44 47 47 48 48 45 43 41 40 39 39 38 35 34 34 34 34 34 33 34 34 33 33 34 33
20 21 21 21 21 22 21 20 19 18 17 17 17 17 18 18 20 21 23 24 22 20 21 23 24 24 22 20 20 20 20 21 18 17 22 28 30 28 25 26 28 31 34 35 35 36 37 37 38 39 42 43 42 42 43 45 47 48 46 45 47 49 49 49 48 46 43 41 39 38 40 39 34 31 30 29 29 31 32 33 34 34 33 35 33
19 20 21 21 21 21 21 21 20 19 18 17 17 18 18 19 21 22 22 23 23 21 22 23 24 25 24 21 23 24 23 22 21 19 19 23 26 28 27 27 28 29 29 30 33 35 36 36 36 37 39 40 40 40 41 44 46 47 48 48 48 49 50 49 48 46 44 42 39 39 39 38 35 32 30 28 28 30 32 33 34 34 34 35 32
18 19 21 21 21 21 22 22 21 20 19 18 17 17 18 19 20 21 21 22 22 22 22 23 25 26 25 24 25 28 28 26 23 21 20 20 22 24 26 28 28 27 27 28 29 30 31 33 34 35 36 38 38 38 39 42 45 47 48 49 49 49 49 49 48 47 46 43 42 41 39 37 36 34 31 30 30 32 34 35 35 34 34 34 29
18 19 21 21 22 21 21 22 22 21 21 19 17 17 17 19 20 20 21 21 22 22 22 24 25 26 26 27 27 30 31 27 25 24 22 21 21 22 24 26 26 25 24 26 27 28 29 31 32 31 33 35 37 38 38 40 42 45 46 48 50 50 49 49 49 48 47 45 44 42 39 38 37 35 32 32 35 36 36 36 35 34 34 32 28
20 20 21 22 22 21 21 21 22 22 22 20 18 17 17 18 20 21 21 21 21 21 22 23 25 25 26 27 27 30 31 29 28 26 22 21 21 22 22 22 22 22 21 22 25 28 30 31 30 29 30 33 35 37 38 38 40 43 45 47 49 50 50 50 49 47 46 45 43 41 39 39 38 35 33 35 38 38 37 36 34 34 33 31 28
20 20 20 21 23 22 21 22 22 22 23 21 19 17 17 18 19 21 21 20 20 21 21 23 24 24 24 26 27 29 29 31 33 30 24 21 19 19 20 19 17 18 18 18 21 24 26 28 27 26 26 28 31 34 35 36 37 39 42 45 47 48 50 50 49 47 45 43 42 41 40 40 38 36 36 38 39 39 37 35 34 33 31 28 26
20 20 20 20 22 23 23 23 23 23 23 22 20 18 16 17 19 21 21 20 20 22 22 23 24 23 23 24 26 28 28 30 35 35 27 21 18 17 16 13 12 12 13 16 19 19 20 23 22 19 19 22 25 27 29 32 35 37 38 40 44 47 48 49 49 49 46 44 42 42 42 41 39 38 39 39 38 37 35 33 32 31 29 27 26
19 19 19 21 22 23 23 23 22 22 23 23 21 18 17 17 18 20 21 21 21 23 23 23 24 24 23 23 24 27 28 29 33 35 31 23 16 17 20 11 7 9 12 15 16 15 16 18 18 15 15 19 23 25 27 30 33 35 36 39 42 45 46 47 48 49 47 44 42 42 42 41 40 39 39 38 36 34 32 31 30 29 28 27 26
18 18 19 21 23 24 24 22 21 21 22 22 21 19 18 17 18 19 21 21 22 23 23 24 24 24 23 22 22 24 26 27 30 32 34 30 18 14 20 19 9 7 12 17 14 8 10 13 15 15 14 15 20 24 27 29 31 33 35 38 41 42 43 44 45 45 45 44 43 43 42 40 39 39 38 37 35 32 30 29 29 29 27 25 24
17 18 20 22 23 23 22 20 19 20 20 20 20 19 18 18 18 19 20 21 22 24 24 24 24 23 22 21 21 22 23 24 27 27 31 34 26 15 15 17 16 11 6 12 14 7 5 3 4 10 10 11 16 20 21 23 26 28 31 34 36 36 38 40 41 41 43 44 43 42 41 38 37 37 36 34 33 31 29 29 29 28 25 23 23
17 17 19 21 22 21 19 18 17 18 19 19 19 19 19 19 19 20 20 20 22 24 24 23 22 22 21 19 19 20 21 21 23 24 25 30 32 24 14 12 14 17 15 9 11 10 10 12 10 5 4 6 9 14 18 20 23 26 28 30 33 34 35 36 38 39 40 41 40 39 38 37 36 34 33 32 31 30 28 28 29 27 24 22 21
17 17 18 20 21 19 17 17 17 17 19 19 19 18 18 19 19 19 19 20 21 23 23 21 21 20 20 19 18 18 19 19 20 21 22 25 29 29 22 13 13 14 15 12 8 9 8 10 12 11 7 7 6 6 12 16 19 21 22 23 26 29 30 31 34 36 37 37 37 37 35 34 33 32 31 31 30 29 29 29 28 26 24 22 20
17 17 17 19 20 18 16 16 17 18 19 20 19 18 18 18 18 18 18 18 18 20 20 18 19 20 19 19 18 17 17 18 19 19 19 21 24 27 27 23 18 15 12 10 9 11 10 7 7 7 3 1 3 6 8 6 7 12 15 16 18 20 21 24 27 29 32 34 35 34 33 31 29 28 30 31 30 29 30 30 27 24 23 22 20
18 17 17 18 19 17 16 16 17 18 20 20 19 18 18 18 17 17 17 17 17 18 19 17 18 19 19 18 17 16 16 17 18 17 17 18 20 23 25 26 25 23 18 13 11 12 11 8 5 5 4 3 4 2 3 5 6 11 14 15 16 16 17 20 23 26 28 29 29 29 29 28 28 29 30 30 30 30 30 29 26 24 23 22 21
18 17 17 18 18 17 16 17 17 18 19 19 19 18 17 17 18 17 17 18 18 19 19 18 17 18 19 18 17 16 15 15 16 16 16 16 17 19 21 23 24 24 21 19 16 14 12 11 8 5 4 4 5 6 8 8 9 11 14 16 16 17 17 18 20 23 25 26 27 29 29 29 30 30 29 29 30 30 30 29 27 25 24 23 22
18 17 17 18 18 17 18 17 17 17 18 19 18 18 17 18 19 19 18 19 19 19 20 19 18 17 18 19 19 17 16 15 14 14 15 16 16 16 17 18 19 20 20 20 19 18 16 14 12 9 5 3 3 6 9 10 10 11 12 14 14 15 17 18 19 20 24 27 29 29 30 31 31 30 29 29 29 29 30 30 28 26 26 25 23
17 17 18 18 18 18 18 17 16 17 18 18 17 17 18 19 19 20 20 20 20 20 20 21 20 19 18 18 19 20 18 16 14 13 14 15 15 15 15 14 15 17 19 19 18 18 19 18 16 14 11 7 4 2 5 9 11 13 14 15 14 14 17 18 18 17 20 26 31 33 34 34 34 32 31 30 28 28 29 30 28 26 26 26 24
17 18 18 18 18 17 16 15 15 17 18 18 18 18 18 19 19 19 20 20 20 20 20 21 22 22 21 19 18 19 20 18 16 14 13 13 13 14 13 13 13 14 15 16 16 17 17 17 17 16 16 14 11 8 4 2 7 10 14 17 18 17 18 20 20 20 20 21 27 33 34 34 33 32 31 30 29 28 28 27 26 26 25 25 25
17 17 18 17 17 17 16 15 15 16 18 20 20 19 19 19 19 20 21 22 22 21 21 22 23 23 23 21 19 17 18 19 18 16 13 12 12 12 13 12 12 11 11 12 13 13 13 13 14 14 14 14 14 13 11 9 5 3 6 12 17 19 20 20 19 20 20 20 22 25 26 27 29 30 28 27 27 27 25 25 25 25 24 24 24
17 17 17 17 17 17 17 17 17 17 18 20 22 22 21 20 20 20 21 23 24 23 23 23 23 23 22 22 21 19 17 17 18 17 16 13 12 11 12 12 11 10 10 9 9 9 9 9 10 11 11 11 11 11 11 11 11 9 7 3 6 11 16 18 15 13 12 14 17 20 22 25 27 26 24 23 23 23 22 22 22 23 23 23 24
20 18 18 17 17 18 19 19 18 18 18 19 21 22 22 21 21 21 21 23 24 25 24 23 22 22 22 21 21 21 19 17 17 17 17 16 14 12 11 11 10 10 10 10 9 8 8 8 8 9 8 8 7 8 8 9 8 8 9 9 7 5 5 8 11 11 11 11 11 13 15 17 19 18 17 17 18 18 19 20 20 21 21 21 22
21 21 21 20 19 19 20 19 18 19 19 20 21 22 22 22 22 22 22 23 24 24 24 22 22 23 22 21 21 21 21 19 18 17 16 16 16 15 13 12 10 9 9 9 9 9 9 8 8 8 8 7 6 5 6 6 6 6 6 7 8 8 8 8 7 7 9 10 10 11 12 13 14 14 14 15 16 17 17 17 17 18 18 20 21
22 21 21 21 20 20 20 20 20 20 20 21 21 22 22 21 21 21 21 22 23 23 22 22 22 23 23 22 21 21 21 21 20 18 17 16 16 17 17 15 13 11 10 9 8 8 8 8 8 7 8 7 6 5 5 5 5 5 5 5 6 6 7 8 8 8 8 7 7 8 10 13 15 16 16 17 17 17 17 16 16 16 17 18 19
22 20 19 19 19 20 20 20 20 20 20 20 20 21 20 20 20 20 21 22 22 21 21 21 21 21 21 21 21 21 21 22 21 20 18 16 15 15 16 16 15 14 12 11 9 7 7 7 7 7 7 7 6 6 6 6 6 5 5 5 4 4 4 5 5 7 8 8 8 7 7 8 10 13 15 16 17 17 17 17 16 16 16 16 15
21 21 20 19 18 19 20 20 19 19 19 20 21 20 19 18 18 19 20 20 20 19 20 20 19 19 19 19 20 21 22 22 21 20 19 18 16 15 15 15 16 15 14 12 11 9 8 7 7 7 7 7 7 7 7 7 7 6 4 4 4 4 5 5 5 5 6 6 6 6 6 6 7 8 8 10 11 12 13 14 14 14 14 14 14
21 22 21 20 18 18 19 19 19 19 20 20 20 19 19 19 19 19 19 19 18 18 18 18 19 19 19 19 20 20 21 21 21 20 19 18 17 16 15 14 14 15 14 13 12 11 10 9 8 7 7 7 8 8 8 8 9 8 7 6 5 6 6 7 7 7 7 6 6 6 6 6 6 7 8 8 8 9 10 11 12 12 13 13 14
25 25 22 20 19 19 20 19 20 20 20 20 20 20 20 20 19 19 19 19 19 19 18 18 19 20 20 20 20 20 20 20 20 20 20 19 18 17 16 15 14 13 13 13 12 12 11 11 10 10 9 8 8 8 9 10 11 11 10 9 9 9 9 9 10 10 9 9 9 10 9 8 7 8 9 9 9 10 10 11 11 11 12 13 14
25 25 22 19 18 20 21 21 20 20 20 20 20 20 20 20 19 19 18 19 19 20 19 19 18 18 19 20 20 20 20 20 20 20 21 21 20 19 18 18 16 14 13 13 13 12 12 12 11 11 11 10 9 9 9 10 11 12 12 12 12 12 12 12 12 12 11 11 12 12 12 11 10 9 10 11 12 13 13 13 13 13 13 13 14
19 18 18 18 19 20 21 21 19 18 19 19 20 20 20 19 18 17 17 17 17 17 16 16 16 16 17 18 18 19 19 19 20 20 21 22 22 22 21 20 19 17 15 14 14 14 14 14 13 12 12 12 11 11 11 11 12 12 13 13 13 13 13 13 13 14 15 15 15 15 15 15 13 12 11 12 13 14 15 15 15 15 15 16 16
14 14 15 17 17 17 16 15 15 16 17 18 18 19 18 17 16 15 14 14 14 14 15 16 17 17 17 17 18 19 19 19 19 19 20 20 21 22 22 22 21 20 18 16 15 15 15 16 16 15 14 14 14 14 14 14 14 14 14 14 14 14 14 14 14 14 15 16 16 17 16 15 14 14 13 14 15 15 16 16 17 17 17 17 17
14 13 12 13 13 12 12 12 14 15 16 16 17 17 17 16 15 14 14 14 15 17 19 20 20 20 20 20 20 20 21 20 20 20 20 20 20 21 22 22 22 22 21 20 19 18 18 18 18 18 18 18 18 18 18 18 18 17 17 16 15 15 15 15 15 15 15 15 16 16 16 15 15 15 16 17 17 18 18 18 18 19 19 18 18
13 11 9 10 10 10 10 12 14 14 15 16 17 17 17 17 17 17 17 18 20 21 22 23 23 23 23 24 24 24 23 23 23 23 23 23 23 22 22 22 22 22 22 23 23 22 21 20 20 20 21 21 21 21 21 21 21 21 20 20 19 18 18 18 18 18 18 18 18 17 17 17 17 18 18 19 19 19 20 20 20 20 19 19 18
11 9 8 10 11 11 11 13 14 15 16 17 18 19 20 20 21 21 21 22 23 23 24 25 25 26 26 27 27 27 27 26 25 24 25 25 25 25 25 25 24 24 23 23 24 24 24 23 22 21 21 22 23 24 24 24 23 23 23 23 22 22 22 22 22 22 22 22 21 21 20 20 20 20 20 21 21 20 20 19 19 19 19 19 18
11 10 10 11 12 12 13 14 15 17 18 19 20 21 22 22 23 24 24 25 26 26 27 27 27 27 28 28 28 28 28 28 27 27 26 26 26 26 26 26 26 27 26 26 26 25 25 25 25 25 24 24 24 25 25 26 26 25 25 25 25 25 25 25 26 25 25 25 25 24 24 23 24 24 23 23 22 22 21 20 19 18 18 19 19
12 12 12 12 13 14 15 16 16 17 18 20 21 22 23 24 25 26 27 27 28 28 28 28 29 29 30 30 30 30 30 30 30 29 28 28 28 27 27 27 27 28 28 29 28 28 27 25 25 25 25 25 25 26 26 27 27 28 27 27 27 27 27 27 27 27 27 26 26 26 26 26 27 27 27 26 25 24 23 22 21 20 19 19 19
13 13 13 14 14 15 16 17 18 19 20 22 24 25 26 26 27 27 28 28 29 29 30 30 31 31 31 31 31 31 31 31 31 30 30 30 29 29 29 29 28 27 28 28 29 29 28 26 24 23 23 24 24 24 25 26 28 29 30 30 29 29 29 29 28 28 27 28 28 28 28 28 28 28 28 28 27 26 26 25 25 24 22 21 21
14 15 15 16 16 17 18 20 22 23 25 26 26 26 26 27 27 28 29 29 29 29 29 28 28 28 28 28 29 29 30 30 30 30 30 30 30 30 30 30 30 29 28 27 27 27 27 27 27 25 24 24 23 22 22 23 25 26 28 29 30 31 31 31 30 30 30 30 30 29 28 27 29 30 30 29 29 28 28 27 27 27 27 25 25
15 16 17 18 19 20 22 23 24 25 26 26 27 27 27 28 28 28 28 27 26 25 25 24 24 24 25 25 26 26 27 27 28 28 28 29 29 29 29 30 29 29 28 27 27 26 26 27 27 26 25 25 25 25 23 23 23 23 23 25 26 28 29 30 31 33 33 32 32 31 30 28 29 31 32 32 31 30 29 29 29 28 28 27 27
17 18 19 20 22 23 23 24 24 25 26 27 27 27 27 27 26 25 24 23 23 23 22 23 23 23 23 23 23 24 24 24 25 25 26 26 27 28 28 28 28 28 27 26 26 26 27 27 28 27 26 27 28 29 28 27 26 25 24 24 23 24 25 27 30 33 34 34 34 33 32 30 29 29 30 31 31 31 30 29 30 30 29 29 29
20 21 22 23 23 23 23 23 24 25 26 26 26 25 24 23 22 22 21 21 20 20 20 19 19 19 19 19 19 20 20 20 20 20 21 21 22 23 24 25 25 26 26 25 25 26 26 27 27 27 27 28 29 30 31 31 31 31 31 30 29 28 27 27 28 29 31 32 33 33 33 32 31 30 30 31 32 32 32 31 31 32 32 32 32
23 23 23 23 22 22 23 23 23 23 23 22 21 20 20 19 19 18 18 17 17 16 15 15 14 14 14 14 14 14 14 14 14 15 16 16 17 17 18 19 19 20 21 22 22 23 24 25 26 26 27 27 28 29 29 30 31 32 33 34 35 35 35 34 34 33 32 31 31 31 31 32 32 32 32 33 33 33 33 33 33 34 35 36 35
Wind_Direction
319 319 320 322 326 325 322 318 314 311 307 303 302 304 305 304 302 301 298 293 290 290 289 289 288 288 286 284 279 273 268 266 266 266 265 265 264 262 257 255 255 255 254 253 250 249 247 245 243 242 243 244 242 239 236 237 241 239 234 234 237 238 237 238 237 231 221 220 221 221 222 226 229 230 232 237 246 256 264 267 266 266 269 273 271
319 318 320 324 327 326 323 321 317 314 311 307 304 304 305 305 305 303 300 294 290 288 286 287 288 288 287 286 283 278 272 269 268 267 266 264 262 261 258 256 255 254 253 251 250 249 247 245 243 241 241 242 241 238 235 236 239 237 233 233 235 237 237 237 238 234 225 221 225 226 225 227 230 232 234 239 247 256 264 270 270 270 273 275 274
319 319 322 326 329 327 326 324 322 319 317 315 312 309 307 306 305 304 300 295 291 289 286 284 285 287 288 287 285 282 277 274 271 270 268 266 262 260 258 255 254 253 251 250 250 250 248 246 244 241 240 242 243 240 237 237 238 236 234 235 235 235 236 236 237 236 232 228 229 229 227 228 231 233 235 240 246 254 262 269 272 275 278 279 278
320 320 324 328 329 329 328 327 325 325 325 324 322 317 314 313 312 309 306 302 297 294 290 286 286 292 296 296 292 287 281 276 274 271 269 267 264 260 257 254 253 252 250 249 249 249 249 248 246 243 242 243 245 244 240 238 238 236 235 237 238 236 234 235 236 237 237 236 232 229 229 230 232 233 235 239 245 252 258 264 269 275 280 283 282
322 321 323 327 329 329 329 328 328 329 331 332 331 329 327 325 322 318 315 313 310 303 295 291 294 304 309 307 303 294 284 277 273 270 268 267 265 260 255 253 253 252 251 249 248 248 249 249 247 246 244 244 245 244 241 239 238 236 235 237 240 237 232 232 235 237 239 239 235 231 231 231 231 233 236 238 243 249 254 259 264 270 278 284 285
323 322 323 326 329 330 329 328 327 329 330 332 335 338 338 335 329 323 319 320 320 314 305 300 303 309 311 310 307 300 288 280 274 269 267 267 263 260 256 253 252 253 251 249 249 248 249 249 248 246 245 245 244 242 240 240 239 236 235 238 240 236 230 230 234 236 237 239 237 233 230 229 231 235 237 239 242 246 252 257 261 268 277 282 283
323 322 322 325 327 328 330 327 324 324 325 326 330 334 336 336 332 327 322 320 322 322 318 312 310 310 308 307 307 302 291 281 274 267 264 265 262 257 255 252 252 252 252 252 251 251 250 251 249 247 247 246 244 240 238 240 240 236 233 234 233 229 227 229 231 233 234 237 237 234 230 229 233 237 238 239 242 246 252 259 263 267 275 280 280
322 321 321 323 324 327 331 329 324 321 322 324 326 328 331 333 333 330 325 319 318 321 323 321 318 316 313 309 307 306 298 287 277 268 261 260 262 261 257 256 255 255 255 255 254 254 252 252 252 250 248 246 243 240 238 239 241 238 233 229 225 223 225 227 228 230 234 236 236 234 231 231 235 237 237 239 242 247 253 261 265 268 275 280 279
321 321 321 321 322 327 331 332 327 322 321 323 326 328 330 332 332 330 327 322 316 315 323 328 327 325 321 315 311 308 310 305 288 272 262 259 263 263 258 259 261 260 259 258 257 257 255 254 254 253 251 247 243 240 238 237 239 238 232 226 223 223 225 227 228 230 233 234 235 234 231 230 233 236 237 240 244 248 253 261 266 271 275 277 277
322 321 321 321 322 326 331 333 331 324 321 322 325 328 330 331 331 328 328 328 323 322 330 333 331 329 326 323 318 308 310 318 305 276 265 267 273 272 261 261 266 265 262 261 260 261 259 256 255 255 254 250 244 240 236 235 237 237 232 227 225 227 228 230 231 231 231 233 234 233 231 230 232 235 237 241 244 248 253 259 266 271 274 276 277
321 321 321 321 322 325 329 332 332 327 323 322 323 327 328 330 330 328 328 330 331 335 336 332 331 332 329 329 330 323 317 321 317 293 275 273 277 277 270 270 275 272 264 261 263 263 258 256 256 256 255 251 245 240 234 232 233 234 231 228 227 228 231 233 234 232 231 232 233 233 233 231 231 232 237 241 245 248 252 258 265 270 274 277 277
320 320 321 322 323 326 328 331 333 331 327 324 322 324 327 328 327 327 327 329 332 334 332 329 331 333 333 336 338 337 332 327 321 308 291 279 276 274 270 272 280 278 269 267 271 267 258 255 258 260 257 250 244 239 232 228 229 231 230 228 228 229 230 232 232 231 230 232 233 234 233 233 233 235 240 245 247 248 251 257 264 270 274 277 274
319 320 321 322 323 326 328 331 334 334 332 329 325 323 326 327 326 325 326 328 331 331 329 329 332 333 337 344 346 345 343 336 327 318 305 292 283 278 273 272 277 278 271 271 277 274 262 258 260 261 257 247 239 236 231 226 225 227 228 227 226 228 229 230 230 229 229 230 232 234 234 235 237 240 243 245 245 246 250 256 263 270 274 273 266
318 318 319 320 321 323 325 328 333 334 333 332 330 327 326 325 323 323 324 326 329 331 330 330 332 334 339 345 349 350 350 344 335 327 316 302 290 284 279 276 277 279 274 270 273 273 268 263 261 262 255 244 237 233 231 227 224 225 227 226 224 225 227 228 227 226 227 228 230 233 234 235 238 241 242 242 243 246 250 255 263 270 271 267 257
317 316 315 315 316 317 319 322 327 331 332 331 329 327 325 322 319 320 323 325 328 330 331 331 332 335 339 343 347 352 354 352 345 336 326 313 299 288 285 283 280 279 277 273 272 271 269 264 260 259 254 245 239 236 235 232 227 224 224 224 224 226 228 228 227 227 228 230 232 234 234 234 237 239 241 242 244 246 249 254 262 268 266 260 252
319 316 311 309 310 312 315 316 319 326 331 330 326 323 322 319 317 319 324 327 327 328 330 333 334 335 338 341 344 348 350 351 350 345 335 322 310 297 290 288 285 280 278 280 280 274 269 262 255 253 250 243 239 237 236 233 228 224 224 223 224 226 228 229 229 229 231 233 235 235 235 235 236 238 241 244 245 246 248 253 260 262 258 253 249
319 318 313 307 306 308 310 312 315 321 326 326 323 321 321 319 318 321 326 329 328 328 332 336 337 338 339 341 343 345 345 347 348 348 343 329 319 322 315 291 277 290 292 288 286 278 268 259 249 244 242 235 233 231 227 225 222 220 220 221 222 224 226 227 228 229 231 233 234 236 236 235 235 237 241 243 243 244 247 252 256 255 249 247 247
319 321 318 312 308 306 305 308 313 317 321 323 321 320 321 322 321 324 328 329 329 329 334 337 338 339 341 342 343 343 344 345 345 347 349 338 322 338 353 345 283 294 314 310 296 273 256 250 242 236 231 223 222 223 219 218 220 218 217 218 220 222 224 226 227 228 229 231 233 234 233 231 233 235 237 238 239 242 246 249 249 245 242 243 245
320 322 320 315 310 306 304 307 314 317 319 321 320 320 323 325 324 325 327 328 328 329 333 335 336 336 338 342 343 341 342 345 344 346 352 350 333 325 348 360 355 302 306 318 316 277 238 239 231 230 236 226 220 221 220 220 223 224 222 221 222 223 224 226 226 225 227 230 232 231 229 229 230 231 231 233 236 241 243 243 240 238 237 239 240
323 321 318 314 309 306 306 311 317 321 322 321 320 321 323 324 323 322 324 325 325 327 330 332 333 335 336 339 342 340 338 342 344 347 352 355 355 337 325 346 11 25 349 315 321 344 19 357 215 210 227 231 223 222 223 225 224 221 220 219 220 223 223 224 226 227 228 230 229 227 226 225 225 226 228 231 234 236 237 235 234 233 233 234 237
322 318 313 309 307 308 311 316 321 325 325 323 320 320 322 322 321 321 323 325 324 324 328 331 332 334 336 337 339 338 336 337 344 350 351 356 2 1 340 322 348 20 36 2 319 334 10 12 13 41 111 154 189 197 200 208 213 213 216 218 218 221 223 223 225 224 222 222 222 221 219 217 217 222 228 231 232 231 230 230 228 228 231 237 241
318 313 308 304 304 308 314 319 324 327 326 322 319 319 321 322 323 323 325 327 324 323 327 332 335 336 337 336 335 334 333 334 341 349 353 356 1 5 6 350 332 356 28 32 2 343 343 347 357 12 54 93 89 123 159 180 193 194 197 203 206 209 212 214 218 218 216 215 215 213 213 214 218 222 227 231 231 229 228 228 228 229 234 241 242
316 309 304 302 302 306 314 321 326 327 324 318 314 314 318 322 325 327 328 328 328 327 330 334 339 341 340 338 334 331 331 334 339 346 352 357 0 4 9 11 6 2 10 25 29 14 356 342 345 354 8 82 25 53 95 128 163 164 163 170 179 184 188 191 196 203 207 207 207 209 214 219 221 222 226 230 230 228 226 227 228 229 231 235 237
312 307 305 304 302 304 312 320 326 326 322 315 310 310 315 319 324 327 329 330 332 333 335 338 343 345 344 342 338 333 329 332 337 343 349 355 359 3 6 9 12 13 12 17 27 23 16 16 6 342 324 271 266 266 134 131 143 153 159 167 174 178 181 183 186 194 202 205 207 211 218 223 224 224 226 227 226 224 224 224 224 225 227 229 232
306 303 304 305 303 304 309 317 323 323 318 311 307 308 314 319 322 325 327 330 332 333 335 339 345 346 345 344 343 338 332 330 332 336 343 350 355 1 4 6 6 7 10 17 22 23 25 30 27 7 331 295 275 250 222 197 179 174 173 175 182 188 192 196 200 204 207 210 211 213 215 219 222 220 220 221 220 220 221 221 220 222 225 227 230
302 299 300 302 302 302 306 312 317 316 312 309 307 310 315 318 321 323 324 325 328 329 330 334 341 345 345 342 341 339 336 332 329 327 331 338 345 351 359 5 5 3 4 10 17 22 28 30 31 31 18 324 279 251 234 221 215 212 202 193 193 194 196 205 214 216 212 210 211 213 213 214 216 214 213 217 218 216 218 220 222 225 228 229 231
299 296 295 297 300 301 302 307 310 308 306 306 307 310 315 316 318 321 322 321 322 324 325 328 334 339 342 340 338 336 335 333 331 328 326 329 334 340 347 354 358 1 3 4 6 14 23 28 30 33 33 26 13 309 244 225 222 225 222 218 219 215 211 215 224 227 222 214 212 213 213 211 212 212 212 214 217 216 217 221 223 227 230 229 229
296 293 292 293 295 296 296 300 304 303 300 300 302 306 310 312 314 318 319 319 321 323 325 327 330 333 336 338 338 336 334 332 331 332 332 331 330 332 335 340 345 351 357 1 1 2 8 16 21 24 28 32 33 29 18 262 231 227 222 220 222 223 225 230 235 239 240 231 220 216 212 209 211 216 216 216 218 218 217 219 221 225 229 229 227
291 288 289 289 289 289 290 293 298 297 294 293 296 300 302 305 309 314 317 319 321 322 323 325 328 330 332 333 335 337 336 334 331 330 333 336 336 334 331 329 331 335 340 347 351 352 355 2 7 9 15 23 27 28 30 28 12 306 239 224 222 222 225 231 237 239 242 241 233 226 219 215 218 222 222 221 222 222 220 220 221 224 230 232 230
292 286 284 284 284 284 285 288 292 293 291 289 292 295 297 300 304 309 314 317 319 320 321 323 325 328 329 330 330 332 335 336 334 332 331 331 335 337 335 330 325 323 323 325 330 335 338 342 347 350 357 7 11 13 17 22 23 18 7 329 251 234 228 228 231 231 229 229 227 224 220 218 220 221 220 220 222 223 224 225 226 227 232 234 233
294 286 281 280 280 281 281 284 289 292 292 289 289 290 293 295 298 302 308 314 317 318 319 321 322 324 326 328 327 327 330 334 335 334 332 330 330 333 335 334 328 321 316 313 312 313 314 315 318 321 327 337 346 351 355 1 7 10 11 12 7 345 289 253 243 239 235 230 227 224 220 218 219 220 220 221 224 225 226 229 230 231 234 235 236
292 287 283 280 279 278 278 281 287 290 290 289 289 290 290 290 291 295 302 310 314 314 316 319 320 320 321 323 323 323 324 327 330 331 331 331 331 331 330 331 330 324 317 312 309 305 303 303 304 306 307 309 316 324 333 337 339 344 352 356 355 354 351 340 314 282 261 248 243 243 239 233 230 228 225 223 225 226 227 229 230 232 234 235 235
288 285 283 281 278 277 278 280 284 290 293 293 293 293 292 290 289 292 300 308 311 311 314 318 319 317 317 318 318 318 319 320 323 324 325 327 330 331 330 328 326 323 319 315 311 305 300 298 299 299 299 297 296 295 296 301 310 317 321 324 329 336 341 342 342 337 323 300 274 258 248 240 236 232 228 225 224 225 228 232 235 237 237 237 235
284 282 281 280 278 277 278 280 284 289 293 294 294 294 293 292 292 294 300 306 308 309 313 316 316 315 314 313 313 312 312 314 317 319 320 323 327 330 329 327 325 324 321 317 312 304 295 293 295 296 293 285 277 274 274 278 285 288 285 285 293 307 320 325 328 332 331 330 326 315 293 266 248 238 233 230 228 229 232 235 238 240 241 241 240
278 277 276 276 276 276 277 280 283 286 289 293 297 298 298 296 295 296 298 301 304 306 309 310 310 310 309 307 306 305 305 307 310 313 315 319 324 327 327 324 321 321 322 320 314 306 297 291 287 287 288 282 272 264 263 268 271 264 256 265 278 283 289 296 298 300 305 313 321 326 322 308 285 268 259 251 245 244 245 245 246 248 250 249 248
268 267 267 267 268 269 272 275 280 284 288 293 295 297 297 296 295 296 297 299 303 305 306 306 307 306 304 302 301 300 301 301 303 305 308 311 316 320 321 319 315 314 315 317 315 309 305 300 292 284 281 281 280 275 266 262 260 253 243 242 252 261 269 273 275 278 284 286 286 289 292 288 276 270 268 264 256 250 247 247 248 250 251 252 252
260 256 253 254 257 262 268 273 277 281 285 289 291 293 295 296 296 296 297 298 299 300 300 302 304 305 304 302 300 298 297 297 298 299 301 303 306 308 310 311 308 303 303 306 309 308 305 301 295 288 281 276 277 278 272 264 261 260 256 253 252 252 255 261 267 274 281 283 283 284 287 283 268 251 243 241 240 239 238 239 241 244 247 250 251
268 261 254 252 255 261 266 268 271 277 283 288 291 293 294 295 296 297 296 295 295 294 294 297 301 302 302 302 301 299 296 294 292 292 292 295 298 299 300 302 302 298 293 291 293 296 297 296 293 289 284 278 273 273 272 271 269 268 266 265 264 262 261 262 266 270 274 276 278 281 284 283 276 261 244 235 235 236 237 239 243 248 253 256 257
289 281 272 267 266 268 269 268 269 277 285 288 289 290 292 294 295 296 297 297 297 297 298 300 302 302 302 303 303 302 300 296 293 290 289 290 291 292 293 293 294 294 292 290 288 286 286 287 286 285 282 279 276 274 272 271 271 271 271 271 272 272 270 268 267 268 270 272 275 277 280 282 282 277 266 254 249 248 248 250 253 256 258 260 261
301 296 290 283 277 275 275 275 276 281 284 285 286 288 290 292 293 294 297 298 298 299 300 301 301 301 301 301 302 302 302 300 296 294 292 290 289 290 290 289 287 285 284 285 286 287 285 282 279 278 276 274 275 277 278 276 273 272 271 272 273 274 274 273 271 270 270 272 274 277 279 279 278 276 271 267 264 263 263 264 264 265 266 267 268
298 295 295 292 283 275 274 277 280 281 283 285 287 288 289 289 288 289 290 290 293 295 297 299 300 301 301 302 302 302 301 300 298 296 295 295 294 292 291 289 286 283 279 277 278 281 282 280 277 275 273 272 272 274 276 277 277 277 276 275 273 271 272 273 274 274 274 274 275 277 277 276 273 270 267 265 266 268 270 271 271 271 271 272 271
293 291 292 290 285 280 278 280 282 282 282 283 284 285 285 285 285 285 285 287 290 293 295 297 299 301 302 303 303 302 301 298 296 295 295 295 295 295 294 292 290 286 283 280 279 278 278 276 274 274 274 274 274 274 274 274 274 274 275 275 275 274 273 273 274 274 274 275 274 274 273 272 270 267 265 264 264 265 267 269 271 273 274 275 275
296 298 295 289 287 288 287 284 283 281 281 281 282 283 285 287 288 290 291 291 292 293 294 296 298 300 301 301 301 301 301 299 296 294 292 291 291 291 292 292 292 292 290 287 285 283 280 276 272 271 272 275 276 275 275 274 273 271 270 271 272 274 275 275 275 274 274 274 273 272 271 270 269 268 265 264 263 263 263 265 267 271 275 277 277
302 302 299 294 292 290 288 285 284 283 284 285 286 287 290 292 294 295 296 295 295 296 296 297 298 298 298 298 298 298 298 297 296 295 293 291 289 287 287 287 289 291 292 293 292 289 286 282 277 275 275 277 278 277 274 271 271 271 270 269 270 272 274 275 276 275 275 274 274 272 271 269 268 267 266 266 265 265 265 264 264 265 268 270 271
303 302 299 296 293 291 288 286 285 285 286 287 289 291 292 294 295 296 296 296 297 297 297 297 296 296 295 295 295 294 293 292 292 293 292 291 290 288 286 285 284 285 288 290 291 291 290 289 286 284 283 284 285 284 279 272 268 266 266 267 268 271 273 275 275 275 274 274 273 272 272 271 269 267 265 265 266 267 267 267 266 264 262 263 266
301 300 297 294 292 292 291 291 290 290 290 291 292 293 294 295 295 296 296 296 295 295 294 294 294 293 292 292 291 290 289 287 287 287 287 288 288 289 288 286 285 284 284 285 286 287 288 287 285 284 283 283 283 282 279 275 270 266 264 264 265 266 268 270 271 272 273 274 273 273 274 274 272 268 263 262 263 264 265 266 267 266 263 260 259
297 295 294 293 293 294 295 295 296 295 295 295 295 295 295 295 295 294 294 294 293 293 293 293 292 291 290 290 289 288 287 285 284 282 282 282 283 284 285 286 287 288 288 288 288 288 287 286 285 283 281 280 279 277 275 273 269 265 263 262 263 263 264 265 268 270 272 273 274 273 271 271 270 268 264 260 259 260 263 264 264 265 265 263 260
290 289 290 291 293 295 296 297 296 295 295 296 296 296 294 293 293 292 293 293 293 293 293 292 291 290 289 288 287 286 285 284 283 281 280 279 279 280 280 282 284 287 289 290 290 289 287 287 287 285 282 279 278 277 276 274 270 265 262 260 260 260 262 263 266 268 269 270 271 270 266 262 260 261 261 257 254 254 257 260 261 262 263 264 264
285 285 287 290 293 295 296 295 294 295 296 296 295 294 293 293 293 294 295 296 296 296 296 295 294 293 291 289 288 286 285 285 285 283 282 281 279 279 279 279 281 283 285 287 288 288 287 286 286 284 280 278 278 279 279 278 274 271 269 268 265 263 261 261 261 262 263 264 266 268 268 263 256 252 253 254 254 254 255 257 259 260 261 261 262
286 287 289 291 292 292 292 293 294 295 295 294 293 292 293 294 295 296 296 297 297 298 297 297 296 294 292 291 289 288 288 289 290 290 291 290 288 286 285 283 283 283 284 285 286 287 288 287 287 285 283 281 281 281 281 280 277 275 274 274 274 273 270 267 263 260 258 257 258 260 263 262 258 252 250 251 253 255 256 256 257 258 260 260 260
288 289 290 291 291 291 291 293 294 293 290 289 290 292 293 294 295 296 298 299 299 299 299 298 298 298 297 297 297 297 299 300 302 303 305 305 304 302 300 297 295 293 291 290 288 287 286 286 286 286 286 285 284 284 284 283 281 279 278 277 276 276 274 273 271 268 264 261 257 255 254 254 254 252 251 250 251 253 254 256 258 260 261 262 261
Height
3139 3137 3135 3133 3131 3129 3126 3124 3122 3120 3118 3116 3115 3114 3112 3111 3110 3109 3108 3107 3105 3104 3102 3100 3099 3098 3097 3095 3095 3095 3095 3094 3093 3093 3092 3091 3091 3091 3092 3093 3093 3093 3095 3096 3097 3098 3099 3100 3102 3104 3106 3107 3108 3109 3111 3113 3115 3116 3118 3120 3122 3124 3127 3130 3132 3135 3139 3141 3142 3143 3144 3144 3145 3147 3148 3149 3150 3150 3151 3151 3152 3152 3152 3152 3152
3137 3135 3133 3131 3129 3127 3124 3122 3120 3118 3116 3115 3113 3111 3110 3109 3108 3106 3105 3103 3102 3100 3098 3097 3095 3094 3093 3092 3091 3090 3090 3089 3088 3087 3086 3086 3086 3086 3086 3086 3086 3087 3088 3089 3091 3092 3093 3094 3096 3099 3101 3102 3103 3104 3106 3108 3109 3110 3112 3114 3117 3119 3122 3125 3128 3130 3134 3137 3138 3139 3140 3141 3142 3144 3145 3146 3147 3147 3148 3149 3149 3149 3149 3149 3149
3134 3133 3131 3129 3127 3124 3122 3120 3118 3116 3114 3113 3111 3109 3108 3106 3105 3103 3102 3100 3098 3096 3094 3093 3092 3091 3090 3089 3087 3086 3085 3084 3083 3081 3080 3080 3080 3080 3080 3081 3081 3081 3082 3083 3085 3086 3087 3089 3091 3094 3096 3097 3098 3099 3101 3103 3103 3105 3107 3109 3112 3114 3117 3120 3123 3126 3129 3132 3134 3136 3137 3137 3139 3140 3141 3142 3143 3144 3145 3146 3146 3146 3146 3146 3145
3132 3131 3129 3127 3125 3122 3120 3118 3116 3114 3112 3111 3109 3107 3105 3104 3102 3100 3098 3096 3094 3093 3091 3090 3089 3088 3087 3085 3084 3082 3081 3079 3078 3076 3075 3074 3074 3075 3075 3075 3075 3076 3076 3077 3079 3081 3081 3083 3085 3089 3091 3091 3093 3094 3096 3097 3098 3099 3102 3104 3106 3109 3112 3115 3118 3121 3124 3127 3129 3132 3133 3134 3135 3136 3137 3138 3139 3140 3141 3142 3143 3143 3143 3142 3142
3131 3129 3127 3125 3123 3121 3119 3117 3115 3113 3111 3109 3107 3106 3104 3102 3100 3098 3096 3094 3091 3090 3089 3087 3086 3085 3083 3081 3079 3078 3076 3074 3073 3072 3071 3070 3069 3069 3070 3070 3070 3070 3071 3072 3074 3075 3076 3077 3080 3083 3085 3085 3087 3089 3091 3092 3093 3094 3096 3099 3101 3104 3107 3110 3113 3117 3119 3121 3125 3128 3129 3130 3131 3132 3133 3134 3135 3136 3137 3138 3139 3139 3139 3139 3138
3129 3127 3126 3123 3121 3119 3117 3115 3113 3111 3110 3108 3106 3104 3102 3100 3098 3096 3094 3092 3090 3088 3087 3085 3084 3082 3080 3078 3076 3074 3072 3070 3069 3067 3066 3065 3065 3065 3065 3065 3065 3065 3066 3067 3068 3069 3070 3072 3074 3076 3078 3079 3081 3084 3086 3087 3088 3089 3091 3094 3096 3099 3101 3104 3108 3112 3115 3117 3120 3123 3124 3126 3127 3128 3129 3130 3131 3132 3133 3134 3135 3136 3136 3135 3135
3128 3126 3124 3122 3119 3117 3115 3113 3111 3110 3108 3107 3105 3103 3101 3098 3096 3094 3092 3090 3088 3087 3085 3083 3082 3079 3077 3075 3072 3070 3068 3067 3065 3063 3062 3061 3061 3061 3061 3061 3061 3061 3062 3063 3064 3065 3065 3066 3068 3069 3071 3073 3075 3078 3080 3082 3083 3084 3086 3089 3091 3093 3096 3100 3104 3107 3110 3113 3115 3117 3119 3121 3122 3124 3125 3126 3127 3128 3129 3131 3132 3132 3132 3131 3131
3126 3124 3122 3120 3118 3116 3113 3111 3109 3108 3106 3105 3103 3101 3099 3097 3095 3093 3091 3089 3087 3085 3083 3081 3079 3077 3074 3072 3070 3067 3065 3064 3062 3060 3059 3058 3058 3058 3057 3057 3058 3058 3058 3058 3059 3059 3060 3060 3061 3062 3065 3067 3070 3072 3075 3077 3078 3079 3082 3084 3086 3088 3091 3095 3099 3103 3106 3108 3110 3112 3115 3116 3118 3119 3121 3122 3123 3125 3127 3127 3127 3128 3129 3128 3127
3124 3122 3120 3118 3116 3114 3112 3110 3108 3106 3105 3103 3101 3099 3098 3096 3094 3092 3089 3087 3085 3083 3082 3080 3077 3075 3072 3070 3068 3065 3063 3061 3059 3058 3056 3055 3055 3054 3054 3054 3054 3054 3054 3054 3053 3053 3053 3054 3054 3055 3057 3061 3063 3066 3069 3071 3072 3074 3077 3080 3082 3084 3087 3091 3095 3098 3101 3103 3105 3108 3109 3111 3113 3115 3117 3118 3121 3123 3124 3123 3123 3125 3125 3123 3123
3122 3120 3118 3116 3114 3112 3110 3108 3106 3104 3103 3101 3100 3098 3096 3094 3093 3091 3088 3086 3084 3082 3080 3078 3076 3073 3070 3068 3066 3063 3060 3057 3056 3055 3053 3051 3050 3049 3049 3050 3050 3050 3049 3048 3048 3047 3047 3048 3048 3048 3050 3052 3055 3058 3062 3064 3066 3069 3073 3076 3078 3080 3084 3087 3090 3093 3096 3098 3101 3103 3105 3107 3110 3112 3114 3117 3119 3119 3120 3119 3120 3120 3120 3119 3119
3120 3118 3116 3115 3113 3111 3109 3107 3105 3103 3101 3100 3098 3096 3095 3093 3091 3089 3087 3085 3083 3081 3078 3077 3074 3072 3069 3066 3063 3061 3058 3055 3053 3052 3050 3048 3046 3045 3046 3046 3046 3045 3043 3043 3042 3042 3042 3042 3042 3042 3042 3044 3047 3051 3054 3057 3060 3064 3067 3070 3073 3076 3079 3082 3086 3089 3091 3094 3097 3099 3101 3103 3107 3110 3111 3113 3115 3115 3116 3116 3115 3115 3115 3114 3115
3118 3116 3115 3113 3111 3109 3107 3105 3103 3101 3099 3098 3096 3094 3093 3092 3090 3088 3086 3084 3082 3080 3078 3075 3073 3071 3068 3065 3062 3059 3056 3054 3051 3050 3048 3046 3044 3043 3043 3043 3041 3040 3039 3038 3037 3036 3035 3035 3036 3035 3036 3037 3040 3043 3047 3051 3054 3058 3062 3065 3068 3071 3074 3077 3081 3084 3087 3090 3093 3095 3097 3100 3104 3106 3107 3109 3110 3111 3111 3111 3111 3112 3111 3110 3111
3117 3115 3113 3111 3109 3107 3105 3103 3101 3099 3097 3096 3094 3093 3091 3090 3088 3086 3084 3082 3080 3079 3077 3074 3072 3069 3067 3064 3061 3058 3055 3051 3049 3047 3045 3043 3042 3040 3040 3038 3037 3036 3035 3034 3033 3031 3030 3030 3030 3029 3030 3031 3034 3036 3040 3044 3048 3052 3056 3059 3062 3066 3069 3073 3076 3079 3082 3085 3087 3090 3093 3097 3100 3102 3104 3105 3105 3105 3106 3107 3108 3108 3107 3107 3107
3115 3113 3111 3109 3107 3105 3103 3101 3099 3097 3095 3094 3093 3091 3090 3088 3087 3085 3083 3081 3079 3077 3075 3073 3070 3068 3066 3063 3060 3057 3053 3050 3048 3045 3043 3041 3039 3037 3036 3034 3033 3031 3030 3029 3028 3026 3025 3025 3025 3025 3025 3026 3028 3031 3034 3038 3043 3046 3050 3053 3056 3060 3064 3067 3071 3074 3077 3079 3082 3085 3089 3093 3095 3098 3100 3100 3100 3100 3102 3103 3104 3104 3104 3103 3104
3112 3110 3109 3107 3105 3103 3102 3100 3098 3096 3094 3092 3091 3089 3088 3087 3085 3083 3082 3080 3078 3076 3074 3071 3069 3067 3065 3062 3059 3056 3053 3050 3047 3044 3041 3038 3036 3034 3033 3031 3030 3028 3027 3025 3024 3022 3021 3020 3020 3021 3021 3022 3024 3027 3030 3033 3037 3041 3044 3047 3052 3055 3059 3062 3066 3070 3072 3075 3079 3083 3086 3088 3091 3094 3095 3095 3095 3096 3098 3099 3100 3100 3100 3100 3101
3110 3108 3106 3105 3103 3102 3100 3098 3096 3094 3092 3090 3089 3087 3086 3085 3083 3081 3080 3079 3077 3075 3072 3070 3068 3066 3064 3061 3058 3056 3053 3050 3046 3043 3039 3036 3034 3032 3030 3028 3027 3025 3023 3022 3021 3019 3018 3017 3017 3017 3017 3018 3020 3023 3026 3029 3032 3035 3039 3043 3047 3051 3054 3059 3063 3067 3069 3072 3076 3079 3082 3084 3086 3088 3089 3090 3091 3092 3094 3096 3097 3096 3096 3097 3098
3108 3106 3104 3103 3101 3100 3098 3096 3094 3092 3090 3088 3087 3086 3084 3083 3081 3080 3078 3077 3076 3074 3072 3069 3067 3065 3063 3060 3057 3055 3053 3050 3046 3042 3038 3035 3032 3030 3027 3025 3023 3022 3021 3019 3017 3015 3014 3014 3014 3015 3015 3016 3018 3020 3022 3025 3028 3031 3035 3039 3043 3045 3049 3054 3058 3062 3065 3068 3071 3074 3077 3079 3081 3083 3084 3086 3087 3089 3091 3092 3093 3092 3093 3094 3095
3106 3104 3102 3101 3099 3098 3096 3095 3093 3091 3089 3087 3085 3084 3083 3081 3080 3078 3077 3075 3074 3072 3070 3068 3066 3064 3061 3059 3056 3054 3052 3049 3046 3042 3038 3034 3031 3029 3026 3023 3021 3020 3019 3017 3015 3013 3012 3012 3013 3013 3014 3015 3016 3018 3020 3022 3025 3028 3031 3034 3038 3041 3045 3050 3053 3056 3060 3063 3066 3068 3071 3074 3076 3078 3080 3082 3084 3086 3087 3088 3088 3089 3089 3091 3092
3104 3102 3101 3099 3098 3096 3095 3093 3091 3089 3087 3085 3083 3082 3081 3080 3079 3077 3075 3074 3072 3071 3069 3067 3065 3063 3061 3058 3056 3054 3051 3049 3046 3042 3038 3034 3031 3029 3026 3022 3021 3019 3017 3016 3014 3013 3012 3012 3012 3012 3013 3013 3015 3016 3018 3020 3023 3026 3029 3031 3034 3038 3042 3046 3049 3052 3056 3059 3061 3064 3066 3069 3072 3074 3076 3079 3081 3082 3083 3084 3085 3085 3087 3088 3089
3102 3100 3099 3098 3096 3094 3093 3091 3089 3088 3086 3084 3082 3080 3080 3079 3077 3076 3074 3072 3070 3069 3067 3066 3064 3062 3060 3058 3056 3053 3051 3049 3046 3043 3039 3034 3031 3029 3026 3023 3020 3018 3016 3016 3014 3013 3012 3012 3012 3012 3013 3013 3014 3016 3018 3019 3022 3024 3027 3029 3032 3036 3040 3043 3046 3049 3052 3055 3057 3060 3063 3066 3068 3071 3073 3075 3077 3078 3079 3080 3081 3083 3084 3085 3086
3100 3099 3097 3096 3094 3093 3091 3089 3088 3086 3084 3083 3081 3079 3078 3077 3076 3074 3073 3071 3069 3067 3066 3064 3062 3060 3058 3057 3055 3053 3050 3048 3046 3043 3040 3036 3032 3029 3027 3024 3021 3018 3017 3016 3015 3014 3014 3013 3013 3012 3012 3012 3014 3015 3017 3019 3021 3023 3026 3028 3031 3034 3037 3039 3042 3045 3048 3051 3054 3057 3060 3062 3064 3067 3069 3071 3073 3074 3076 3077 3079 3080 3082 3083 3084
3099 3097 3096 3094 3093 3091 3090 3088 3086 3084 3083 3081 3080 3078 3077 3076 3074 3073 3071 3070 3068 3066 3064 3063 3061 3058 3057 3055 3054 3052 3050 3047 3046 3044 3041 3038 3034 3031 3028 3025 3023 3020 3019 3017 3017 3016 3016 3015 3014 3014 3013 3013 3014 3014 3016 3018 3020 3022 3024 3026 3028 3030 3033 3035 3038 3042 3045 3047 3050 3053 3056 3058 3060 3063 3066 3068 3070 3072 3073 3075 3076 3078 3079 3080 3081
3097 3095 3094 3093 3091 3090 3088 3086 3084 3083 3081 3080 3079 3077 3076 3074 3073 3071 3070 3068 3067 3065 3063 3061 3059 3057 3056 3054 3053 3051 3049 3047 3045 3043 3041 3038 3036 3033 3030 3027 3025 3023 3021 3019 3018 3018 3017 3016 3016 3016 3015 3015 3015 3015 3016 3019 3020 3021 3022 3025 3026 3028 3030 3032 3035 3039 3043 3045 3047 3050 3053 3055 3058 3060 3063 3065 3067 3069 3071 3072 3074 3075 3076 3077 3079
3094 3093 3092 3091 3089 3088 3087 3085 3083 3082 3080 3078 3077 3076 3074 3073 3071 3070 3068 3067 3065 3064 3062 3060 3059 3057 3055 3053 3052 3050 3049 3047 3045 3043 3041 3039 3037 3034 3032 3030 3027 3025 3023 3022 3020 3019 3018 3018 3018 3017 3016 3016 3016 3017 3018 3020 3021 3021 3023 3025 3027 3029 3030 3032 3035 3038 3041 3043 3046 3049 3051 3054 3056 3058 3060 3062 3064 3066 3068 3069 3071 3072 3074 3075 3076
3092 3091 3090 3089 3088 3086 3085 3084 3082 3080 3079 3077 3076 3074 3073 3071 3069 3068 3067 3065 3064 3062 3061 3059 3058 3056 3054 3053 3051 3050 3048 3046 3045 3042 3040 3039 3037 3035 3033 3031 3030 3028 3026 3025 3023 3021 3020 3020 3019 3018 3018 3018 3018 3018 3019 3021 3022 3022 3024 3026 3028 3030 3031 3033 3036 3038 3040 3042 3044 3047 3049 3051 3053 3055 3057 3059 3061 3063 3065 3066 3067 3069 3070 3071 3073
3090 3089 3088 3087 3086 3085 3084 3082 3081 3079 3078 3076 3075 3073 3071 3070 3068 3067 3065 3064 3063 3061 3059 3058 3057 3056 3054 3052 3051 3049 3048 3046 3044 3042 3040 3039 3037 3036 3034 3033 3031 3030 3029 3027 3026 3024 3023 3021 3020 3020 3019 3019 3019 3020 3021 3022 3023 3024 3025 3026 3028 3029 3031 3033 3035 3038 3040 3041 3043 3045 3047 3049 3050 3052 3053 3055 3057 3059 3061 3063 3064 3066 3067 3068 3070
3087 3087 3086 3085 3084 3083 3082 3081 3080 3078 3077 3075 3073 3072 3070 3068 3067 3065 3064 3063 3062 3060 3059 3057 3056 3055 3054 3052 3050 3049 3047 3046 3044 3042 3040 3038 3037 3035 3034 3033 3032 3031 3030 3029 3028 3027 3025 3024 3022 3022 3021 3020 3020 3021 3021 3023 3024 3025 3026 3027 3028 3030 3031 3032 3034 3036 3038 3040 3042 3043 3044 3045 3047 3048 3050 3051 3053 3055 3057 3060 3062 3063 3064 3066 3067
3085 3084 3084 3083 3082 3081 3080 3080 3078 3077 3076 3074 3072 3071 3069 3067 3066 3064 3063 3061 3060 3059 3058 3056 3055 3054 3052 3051 3050 3048 3046 3045 3044 3042 3040 3038 3037 3035 3034 3033 3033 3032 3031 3031 3029 3028 3027 3026 3025 3024 3023 3022 3022 3022 3022 3023 3024 3025 3026 3027 3029 3030 3031 3032 3033 3035 3036 3038 3040 3040 3040 3042 3044 3046 3047 3049 3051 3052 3054 3056 3058 3060 3061 3063 3064
3083 3082 3081 3080 3079 3079 3078 3078 3077 3076 3074 3073 3071 3069 3068 3066 3065 3063 3061 3060 3059 3058 3057 3055 3054 3053 3051 3050 3049 3048 3046 3044 3043 3042 3040 3039 3037 3036 3035 3034 3033 3032 3032 3031 3030 3030 3029 3028 3027 3027 3026 3025 3024 3024 3024 3024 3025 3025 3026 3027 3028 3029 3030 3031 3032 3034 3035 3036 3038 3040 3041 3042 3044 3045 3046 3048 3050 3051 3052 3054 3055 3057 3058 3059 3060
3080 3079 3079 3078 3077 3077 3076 3076 3075 3074 3072 3071 3070 3068 3067 3065 3064 3062 3060 3058 3057 3056 3055 3054 3053 3052 3051 3049 3047 3046 3045 3044 3043 3041 3040 3039 3038 3037 3035 3034 3034 3033 3032 3031 3031 3030 3030 3029 3029 3028 3028 3028 3027 3027 3027 3026 3026 3027 3027 3027 3028 3029 3030 3031 3031 3032 3033 3035 3037 3038 3040 3041 3043 3044 3045 3046 3048 3049 3051 3052 3053 3054 3055 3056 3058
3078 3077 3076 3076 3075 3074 3073 3073 3072 3071 3070 3069 3068 3067 3066 3064 3063 3060 3059 3058 3056 3055 3054 3053 3052 3051 3050 3048 3047 3045 3044 3043 3042 3041 3040 3039 3038 3037 3036 3035 3034 3033 3032 3032 3031 3031 3030 3030 3030 3030 3030 3029 3029 3029 3029 3028 3028 3028 3028 3028 3028 3029 3029 3030 3031 3032 3032 3034 3035 3037 3038 3040 3041 3042 3043 3044 3046 3047 3048 3050 3051 3052 3053 3054 3055
3076 3075 3074 3073 3072 3071 3071 3070 3070 3069 3068 3066 3065 3064 3064 3063 3061 3059 3058 3057 3056 3054 3052 3051 3050 3049 3049 3048 3046 3045 3043 3042 3041 3041 3040 3039 3038 3037 3036 3035 3034 3034 3033 3032 3032 3031 3031 3031 3030 3030 3030 3030 3030 3030 3030 3030 3030 3030 3030 3029 3029 3029 3029 3030 3030 3031 3032 3033 3034 3035 3037 3038 3039 3040 3041 3042 3044 3045 3046 3047 3048 3049 3050 3051 3053
3073 3072 3071 3070 3069 3069 3068 3068 3067 3066 3065 3064 3063 3062 3061 3061 3060 3059 3057 3056 3054 3053 3051 3050 3049 3048 3047 3046 3045 3044 3043 3041 3041 3040 3039 3038 3038 3037 3036 3036 3035 3034 3033 3032 3032 3031 3031 3031 3030 3030 3030 3030 3030 3030 3030 3030 3031 3031 3031 3031 3031 3031 3031 3030 3031 3031 3032 3032 3033 3034 3035 3036 3037 3038 3040 3041 3042 3043 3044 3045 3046 3047 3048 3049 3050
3070 3069 3069 3068 3067 3066 3066 3065 3065 3064 3063 3062 3061 3060 3059 3058 3058 3057 3056 3054 3053 3051 3050 3048 3047 3046 3045 3044 3043 3042 3041 3041 3040 3039 3038 3038 3037 3036 3036 3035 3035 3034 3034 3033 3032 3031 3031 3030 3030 3030 3030 3030 3030 3030 3030 3030 3031 3031 3031 3032 3032 3032 3032 3032 3032 3032 3032 3033 3033 3034 3034 3035 3036 3037 3038 3039 3040 3041 3042 3043 3043 3044 3045 3046 3047
3067 3066 3066 3065 3064 3064 3063 3063 3062 3062 3061 3060 3059 3058 3057 3056 3056 3055 3053 3052 3051 3049 3048 3047 3046 3045 3044 3042 3041 3040 3040 3039 3038 3037 3037 3036 3036 3036 3035 3034 3034 3033 3033 3033 3032 3031 3031 3030 3030 3030 3029 3029 3029 3029 3029 3030 3030 3031 3031 3032 3032 3032 3033 3033 3033 3033 3034 3034 3034 3034 3035 3035 3036 3036 3037 3037 3038 3039 3039 3040 3041 3042 3042 3043 3045
3063 3062 3062 3062 3062 3061 3060 3060 3060 3059 3058 3057 3056 3055 3054 3054 3053 3052 3051 3050 3049 3047 3046 3045 3043 3042 3041 3040 3039 3038 3038 3037 3036 3036 3035 3035 3035 3035 3034 3034 3033 3032 3032 3032 3031 3031 3031 3030 3030 3029 3029 3029 3029 3029 3030 3030 3030 3030 3031 3031 3032 3032 3032 3033 3033 3034 3034 3034 3035 3035 3036 3036 3036 3036 3036 3037 3037 3038 3039 3039 3040 3040 3041 3042 3043
3059 3058 3057 3056 3057 3057 3057 3057 3057 3057 3056 3055 3054 3053 3052 3051 3050 3050 3049 3048 3046 3045 3044 3043 3042 3040 3039 3038 3037 3036 3035 3035 3034 3034 3033 3033 3033 3033 3033 3032 3032 3031 3031 3030 3030 3030 3030 3030 3030 3029 3029 3029 3029 3029 3029 3029 3029 3030 3030 3030 3031 3031 3031 3032 3032 3033 3033 3033 3034 3034 3035 3035 3035 3036 3036 3036 3037 3037 3038 3038 3039 3040 3040 3041 3041
3055 3055 3054 3053 3053 3053 3054 3054 3054 3054 3053 3052 3051 3050 3049 3048 3047 3047 3046 3045 3044 3043 3042 3041 3040 3039 3038 3036 3035 3034 3034 3033 3033 3032 3032 3031 3031 3031 3031 3030 3030 3030 3030 3029 3029 3028 3028 3028 3028 3028 3028 3028 3028 3028 3028 3029 3029 3029 3029 3029 3030 3030 3030 3031 3031 3031 3032 3032 3032 3032 3033 3033 3034 3034 3035 3035 3035 3036 3036 3037 3038 3038 3038 3039 3040
3052 3052 3052 3050 3050 3050 3051 3051 3051 3051 3050 3049 3048 3047 3046 3045 3045 3044 3043 3042 3041 3040 3040 3039 3038 3037 3036 3035 3034 3033 3032 3031 3031 3030 3030 3029 3029 3028 3028 3028 3028 3028 3028 3027 3027 3027 3027 3027 3027 3027 3027 3027 3027 3027 3027 3027 3027 3028 3028 3028 3028 3028 3029 3029 3029 3030 3030 3030 3030 3030 3031 3031 3031 3032 3032 3033 3033 3034 3034 3035 3035 3036 3036 3037 3037
3050 3050 3050 3048 3048 3048 3048 3048 3048 3048 3047 3046 3045 3044 3044 3043 3042 3042 3041 3040 3039 3038 3037 3037 3036 3035 3034 3033 3032 3031 3030 3029 3029 3028 3028 3027 3027 3026 3026 3025 3025 3025 3026 3025 3025 3025 3025 3025 3025 3025 3025 3025 3025 3026 3026 3026 3026 3026 3026 3026 3027 3027 3027 3027 3027 3028 3028 3028 3028 3028 3028 3029 3029 3029 3030 3030 3031 3031 3032 3032 3033 3033 3034 3034 3035
3048 3048 3048 3047 3046 3046 3046 3046 3045 3045 3044 3043 3042 3042 3041 3041 3040 3039 3039 3038 3037 3036 3035 3034 3033 3032 3031 3031 3030 3029 3028 3027 3026 3026 3025 3025 3024 3024 3023 3023 3022 3022 3022 3022 3023 3023 3023 3023 3023 3023 3023 3023 3023 3023 3024 3024 3024 3024 3024 3024 3024 3025 3025 3025 3026 3026 3026 3026 3026 3026 3026 3027 3027 3027 3028 3028 3028 3029 3029 3029 3029 3030 3031 3031 3032
3045 3045 3045 3044 3044 3044 3044 3043 3042 3042 3041 3040 3040 3039 3038 3038 3037 3037 3036 3035 3035 3033 3032 3031 3030 3029 3028 3027 3027 3026 3025 3024 3023 3023 3022 3021 3021 3021 3020 3020 3020 3019 3019 3019 3019 3019 3020 3020 3020 3020 3020 3020 3020 3020 3021 3021 3021 3022 3022 3022 3022 3022 3023 3023 3023 3024 3024 3024 3024 3024 3025 3025 3025 3025 3025 3025 3025 3026 3026 3026 3026 3026 3027 3028 3029
3042 3042 3042 3042 3042 3041 3041 3040 3040 3039 3038 3038 3037 3037 3036 3035 3034 3033 3033 3032 3031 3031 3030 3028 3027 3026 3025 3024 3023 3023 3022 3021 3020 3020 3019 3018 3018 3017 3017 3016 3016 3016 3016 3016 3016 3016 3016 3016 3016 3017 3017 3017 3017 3017 3017 3018 3018 3019 3019 3019 3019 3019 3020 3020 3020 3021 3021 3021 3022 3022 3022 3022 3022 3022 3023 3023 3023 3023 3023 3023 3023 3024 3024 3025 3026
3040 3040 3040 3040 3040 3039 3039 3038 3037 3037 3036 3036 3035 3034 3033 3032 3031 3030 3029 3028 3028 3027 3026 3025 3023 3023 3022 3021 3020 3019 3018 3017 3017 3016 3015 3015 3014 3014 3013 3013 3013 3012 3012 3012 3012 3012 3012 3012 3012 3013 3013 3013 3013 3014 3014 3014 3014 3015 3015 3016 3016 3016 3016 3016 3017 3017 3017 3017 3018 3018 3019 3019 3019 3019 3019 3019 3019 3020 3020 3020 3020 3021 3022 3023 3024
3038 3038 3038 3038 3037 3037 3036 3036 3035 3035 3034 3033 3032 3031 3030 3029 3028 3027 3026 3024 3024 3023 3022 3021 3020 3019 3018 3017 3017 3016 3015 3014 3013 3012 3012 3011 3010 3010 3010 3010 3010 3009 3009 3009 3008 3008 3008 3008 3009 3009 3009 3010 3010 3010 3010 3010 3010 3011 3011 3011 3012 3012 3012 3012 3013 3013 3013 3014 3014 3014 3015 3015 3015 3015 3015 3016 3016 3017 3017 3017 3017 3018 3019 3020 3020
3036 3036 3036 3035 3035 3034 3034 3033 3033 3032 3031 3030 3029 3028 3027 3026 3024 3023 3022 3021 3020 3019 3018 3017 3016 3015 3014 3013 3012 3011 3010 3009 3009 3008 3008 3007 3007 3006 3005 3005 3005 3006 3006 3006 3005 3005 3005 3005 3005 3005 3006 3006 3006 3006 3006 3006 3006 3006 3006 3007 3007 3008 3008 3008 3009 3009 3009 3009 3010 3010 3010 3010 3011 3011 3011 3012 3012 3013 3013 3014 3014 3015 3015 3016 3017
3034 3034 3033 3033 3032 3032 3031 3030 3030 3029 3028 3027 3026 3024 3023 3022 3021 3020 3018 3017 3016 3015 3014 3014 3013 3012 3011 3010 3008 3007 3006 3005 3004 3004 3004 3003 3003 3002 3001 3001 3001 3001 3002 3002 3002 3001 3001 3001 3001 3002 3002 3002 3003 3003 3003 3002 3002 3002 3002 3002 3002 3003 3003 3004 3004 3005 3005 3005 3006 3006 3006 3006 3006 3006 3007 3007 3008 3009 3009 3010 3010 3011 3011 3012 3012
3032 3032 3031 3031 3030 3029 3029 3028 3027 3025 3024 3023 3022 3021 3019 3018 3017 3016 3015 3014 3013 3012 3011 3011 3010 3009 3008 3007 3005 3004 3003 3002 3001 3000 3000 2999 2999 2998 2998 2997 2997 2998 2998 2998 2997 2997 2997 2997 2997 2997 2998 2998 2998 2998 2999 2999 2999 2998 2998 2998 2998 2998 2998 2999 2999 3000 3000 3001 3001 3001 3002 3002 3002 3002 3002 3003 3003 3004 3005 3005 3006 3007 3007 3008 3008
3030 3030 3029 3028 3028 3027 3026 3025 3024 3022 3021 3020 3018 3017 3015 3014 3013 3012 3011 3011 3010 3009 3008 3007 3006 3006 3005 3004 3002 3001 3000 2999 2998 2997 2996 2995 2995 2995 2994 2994 2994 2994 2994 2994 2994 2994 2993 2993 2993 2993 2993 2994 2994 2994 2994 2995 2995 2995 2994 2994 2994 2994 2994 2994 2994 2995 2995 2996 2996 2996 2996 2997 2997 2998 2998 2998 2998 2998 2999 3000 3001 3002 3003 3003 3004
3027 3027 3026 3025 3025 3024 3023 3022 3021 3019 3018 3016 3014 3013 3012 3011 3010 3009 3008 3008 3007 3006 3005 3004 3004 3003 3002 3001 2999 2998 2997 2996 2995 2994 2993 2992 2992 2991 2991 2991 2990 2990 2990 2991 2990 2990 2989 2989 2989 2989 2989 2989 2990 2990 2990 2990 2990 2990 2990 2990 2989 2989 2990 2990 2990 2990 2990 2990 2990 2990 2991 2991 2992 2992 2992 2993 2993 2993 2994 2995 2996 2997 2998 2998 2999
3024 3024 3023 3022 3021 3020 3020 3019 3018 3016 3015 3013 3012 3011 3010 3009 3008 3007 3006 3005 3005 3004 3003 3002 3001 3001 2999 2998 2997 2996 2995 2994 2993 2992 2991 2990 2989 2988 2988 2987 2987 2987 2986 2986 2986 2986 2986 2985 2985 2985 2985 2985 2985 2985 2985 2985 2985 2984 2984 2984 2984 2984 2984 2985 2985 2985 2985 2985 2985 2985 2985 2985 2986 2986 2987 2987 2988 2988 2988 2989 2990 2991 2992 2993 2994